Location: Beuvrages
(50.3841°N, 3.4942°E)
Time: 07:39:57
(UTC+00:00)

Daily predictions for brighter satellites

Satellite Brightness Start Highest point End
(mag) Time Altitude Azimuth Time Altitude Azimuth Time Altitude Azimuth
Cosmos 1954 Rocket 4.0 17:47:26 10° SSW 17:52:33 69° ESE 17:57:43 10° NNE
Cosmos 1190 Rocket 4.1 17:47:36 10° SSW 17:52:49 84° WNW 17:58:04 10° NNE
NOSS 3-1 (A) 4.4 17:48:15 10° NW 17:55:34 72° SW 18:04:16 10° SSE
Cosmos 2369 4.3 17:52:12 10° S 17:57:22 36° ESE 18:02:33 10° NE
CZ-4C R/B 4.2 17:57:17 10° N 18:01:34 61° WNW 18:05:41 10° SSW
CZ-2C R/B 4.5 17:56:41 10° N 18:01:42 37° WNW 18:06:46 10° SW
SL-16 R/B 3.8 18:06:56 10° ESE 18:08:48 12° E 18:10:41 10° ENE
USA 215 3.4 18:02:20 10° ENE 18:08:55 81° NNW 18:15:27 10° WSW
USA 186 3.6 18:07:08 10° ESE 18:09:15 16° ENE 18:11:24 10° NNE
Cosmos 1844 Rocket 4.2 18:09:18 10° NNW 18:13:32 21° NE 18:17:37 10° E
SL-4 R/B 2.3 18:09:17 10° W 18:13:42 80° N 18:18:03 12° E
Cosmos 1437 Rocket 4.4 18:12:35 10° ESE 18:14:20 13° E 18:16:05 10° ENE
ARGOS Delta rocket 4.1 18:09:41 10° NNE 18:14:59 57° E 18:20:00 10° S
Cosmos 1741 Rocket 4.5 18:10:27 10° S 18:15:19 39° ESE 18:20:12 10° NE
SKYMED 3 4.4 18:13:09 10° NNE 18:17:18 89° NW 18:21:25 10° SSW
Timation 2 Rocket 4.1 18:10:52 10° NNW 18:17:24 66° NE 18:23:36 10° SE
BREEZE-M DEB (TANK) 4.4 18:17:03 10° SW 18:21:40 51° SE 18:39:26 10° ENE
Okean O Rocket 1.6 18:18:13 10° SSE 18:22:32 65° ENE 18:26:53 10° N
Cosmos 2219 4.4 18:18:42 10° NW 18:24:12 47° WSW 18:29:40 10° S
Cosmos 1814 Rocket 4.4 18:20:11 10° NNW 18:25:17 46° ENE 18:30:16 10° SE
Nadezhda 4 Rocket 4.4 18:19:37 10° SSE 18:25:28 41° E 18:31:20 10° NNE
Cosmos 1242 Rocket 2.4 18:24:41 10° S 18:28:15 77° E 18:31:49 10° NNE
Spot 1 3.9 18:24:06 10° NNE 18:28:25 85° ESE 18:32:33 10° SSW
BREEZE M DEB (TANK) 4.4 18:25:59 10° SSW 18:29:40 15° SSE 18:31:25 12° SE
SL-14 R/B 3.2 18:26:19 10° N 18:30:17 74° E 18:34:16 10° SSE
Cosmos 1809 Rocket 4.4 18:24:29 10° S 18:30:27 62° E 18:36:27 10° NNE
Cosmos 2263 Rocket 2.2 18:26:04 10° NNW 18:31:48 74° ENE 18:37:29 10° SE
Cosmos 2227 4.4 18:29:11 10° NNW 18:34:40 51° NE 18:39:32 13° SE
Cosmos 1674 Rocket 3.5 18:30:22 10° N 18:34:46 70° ENE 18:39:10 10° SSE
Cosmos 1805 3.1 18:31:10 10° S 18:35:03 77° E 18:38:57 10° NNE
Cosmos 2360 4.4 18:29:24 10° SW 18:35:08 76° WNW 18:40:54 10° NNE
YAOGAN 1 2.7 18:32:04 10° SSE 18:36:23 80° WSW 18:40:44 10° NNW
Meteor 2-5 Rocket 4.2 18:31:31 10° N 18:36:40 37° ENE 18:41:16 12° SE
COBE Rocket 4.1 18:33:50 10° S 18:38:43 73° WSW 18:43:30 10° NNW
Cosmos 1726 2.2 18:35:11 10° S 18:38:43 51° E 18:42:17 10° NNE
OBJECT-B 0.9 18:38:57 26° ESE 18:39:43 32° ENE 18:42:05 10° N
H-2A R/B 3.9 18:39:28 17° ENE 18:40:13 17° ENE 18:42:49 10° NNE
Cosmos 2082 4.3 18:37:32 10° NW 18:43:10 59° WSW 18:48:47 10° S
IRIDIUM 106 4.3 18:40:54 10° S 18:46:02 64° E 18:51:13 10° N
Cosmos 1766 3.3 18:45:11 10° S 18:48:59 54° E 18:52:52 10° NNE
Cosmos 1025 Rocket 4.1 18:46:40 10° NNE 18:50:16 26° ENE 18:51:18 23° E
IRS-1C Rocket 4.4 18:46:16 14° SE 18:50:29 45° ENE 18:55:29 10° N
Cosmos 2084 Rocket 4.3 18:47:20 10° NNW 18:50:43 29° NNE 18:52:17 22° ENE
Cosmos 1697 Rocket 3.4 18:47:33 10° SW 18:53:04 57° NW 18:58:39 10° NNE
CSL-04 Debris 4.2 18:50:45 10° SSE 18:56:05 63° ENE 19:01:25 10° N
Cosmos 2221 Rocket 4.4 18:52:46 10° NNW 18:57:12 55° W 19:01:37 10° S
Cosmos 1975 Rocket 3.8 18:55:37 10° N 18:59:40 33° ENE 19:00:50 28° ESE
Landsat 7 4.2 19:00:02 24° ESE 19:02:22 43° ENE 19:06:50 10° N
IGS 5A 3.5 18:59:48 21° SE 19:02:24 56° ENE 19:06:28 10° N
Cosmos 1092 Rocket 4.3 18:56:33 10° SSE 19:02:28 45° E 19:08:23 10° NNE
Cosmos 1378 Rocket 4.0 18:59:35 10° NNW 19:03:57 62° W 19:08:14 10° S
Resurs 01 Rocket 2.7 19:05:25 25° ENE 19:05:55 26° ENE 19:09:36 10° N
Cosmos 968 Rocket 3.8 19:05:18 10° S 19:10:12 41° ESE 19:15:07 10° NE
ATLAS 2AS CENTAUR R/B 4.3 19:08:41 10° WNW 19:15:05 29° N 19:21:12 10° NE
Cosmos 1470 3.0 19:15:56 44° E 19:15:56 44° E 19:19:33 10° NNE
Cosmos 1733 Rocket 4.5 19:12:20 10° SW 19:16:32 41° WNW 19:20:46 10° N
ISS -2.5 19:19:07 10° W 19:22:08 32° SSW 19:22:45 29° S
Cosmos 2084 4.0 19:19:09 10° WSW 19:22:52 50° NW 19:25:48 16° NNE
Cosmos 2322 Rocket 3.7 19:19:38 10° SSE 19:27:50 19° ENE 19:29:38 10° NE
Ariane Rocket 4.0 19:25:15 28° ENE 19:25:33 28° ENE 19:29:52 10° N
CSL-04 Rocket 3.6 19:21:40 15° SSE 19:26:09 87° WSW 19:31:36 10° NNW
Okean-O 2.5 19:24:10 25° SSE 19:26:42 90° W 19:31:10 10° NNW
Terra 4.0 19:28:16 12° NE 19:28:16 12° NE 19:29:18 10° NNE
Resurs 1-3 3.5 19:26:16 37° SSE 19:27:58 76° ENE 19:32:22 10° N
CZ-4 R/B 3.2 19:24:24 10° SSW 19:28:11 33° W 19:32:00 10° NNW
Gbstr 26 Del rocket 4.5 19:22:04 10° SW 19:29:42 67° SSE 19:34:41 26° ENE
Cosmos 1570 Rocket 4.0 19:26:45 10° NNW 19:32:03 82° WSW 19:34:48 29° SSE
SJ-6B 3.0 19:30:24 29° S 19:32:09 65° WSW 19:35:55 10° NNW
Cosmos 1980 Rocket 2.9 19:27:48 10° SW 19:33:19 55° NW 19:38:52 10° NNE
Meteor 1-12 Rocket 4.5 19:29:22 10° SSW 19:35:23 78° WNW 19:41:27 10° N
JB-3 4.2 19:33:48 10° NNE 19:37:54 76° ESE 19:38:37 57° S
Cosmos 1627 Rocket 4.3 19:32:26 10° S 19:38:30 71° E 19:44:37 10° NNE
USA 186 3.1 19:40:04 29° SSW 19:41:15 41° W 19:44:27 10° NNW
deb Chang Zheng 4 3.3 19:41:18 72° ESE 19:41:31 74° ENE 19:45:40 10° NNW
Cosmos 1428 Rocket 4.4 19:39:45 10° S 19:45:55 86° E 19:52:13 10° N
Cosmos 2195 Rocket 4.4 19:39:51 10° S 19:46:05 90° ENE 19:52:25 10° N
Meteor 1-24 Rocket 3.7 19:43:17 10° NNW 19:48:36 74° W 19:51:25 28° S
Cosmos 2278 3.9 19:42:55 10° SW 19:48:36 71° WNW 19:54:18 10° NNE
Cosmos 1437 Rocket 3.2 19:46:17 10° SSW 19:50:00 58° WNW 19:53:43 10° N
USA 215 3.8 19:47:18 21° ENE 19:51:37 52° N 19:57:54 10° W
SL-16 R/B 2.1 19:46:12 10° SSW 19:51:48 67° ESE 19:57:27 10° NNE
SL-4 R/B 2.7 19:48:45 10° WNW 19:53:10 50° SSW 19:53:27 49° SSW
Cosmos 2208 Rocket 4.3 19:50:04 10° NNW 19:55:24 68° WSW 19:57:21 39° S
Cosmos 1844 Rocket 2.6 19:52:40 10° NNW 19:58:23 77° ENE 19:59:17 63° ESE
Okean O Rocket 4.4 19:56:34 10° SW 19:59:19 16° W 20:02:06 10° NW
Meteor 1-22 Rocket 4.3 19:55:58 10° SSW 20:01:20 75° WNW 20:06:58 10° N
USA 81 4.3 19:56:06 10° N 20:01:21 69° W 20:03:45 33° SSW
Cosmos 2278 Rocket 3.8 19:58:24 10° N 20:02:35 20° NE 20:03:03 20° NE
Cosmos 2026 Rocket 3.9 19:57:30 10° SSW 20:03:35 81° W 20:09:41 10° N
Cosmos 1553 Rocket 3.9 20:01:44 10° N 20:08:06 83° E 20:09:43 54° SSE
Cosmos 1782 Rocket 4.0 20:06:54 37° SW 20:08:22 58° WNW 20:12:42 10° N
MOS 1 4.2 20:08:42 62° SSE 20:09:44 90° NNE 20:15:26 10° NNW
OBJECT-B 3.8 20:09:48 10° W 20:09:57 10° W 20:10:27 10° W
Cosmos 1943 Rocket 4.4 20:10:00 10° N 20:12:11 12° NNE 20:13:27 11° NE
Cosmos 2263 Rocket 4.4 20:10:55 10° NW 20:15:07 22° W 20:19:20 10° SSW
H-2A R/B 3.2 20:15:55 48° WNW 20:15:55 48° WNW 20:19:07 10° NNW
USA 281 3.6 20:16:22 45° ENE 20:16:55 46° NE 20:23:08 10° NNW
Cosmos 1844 3.5 20:14:23 10° NNW 20:20:00 88° WSW 20:20:06 86° S
Cosmos 773 Rocket 4.5 20:20:08 10° NNW 20:24:31 52° NNE 20:24:31 52° NNE
Cosmos 1025 Rocket 4.3 20:24:00 10° NNW 20:27:58 37° W 20:28:11 37° W
MetOp-B 4.2 20:31:46 72° N 20:31:46 72° N 20:36:35 10° NNW
SPOT 1/Viking Rocket 3.8 20:32:06 60° WSW 20:32:14 61° WSW 20:37:21 10° NNW
Cosmos 2315 Rocket 4.5 20:26:03 10° N 20:31:21 47° NE 20:31:21 47° NE
SPOT 3 Rocket 4.2 20:37:48 48° N 20:37:48 48° N 20:41:35 10° N
Cosmos 2360 Rocket 4.3 20:46:44 15° NNE 20:46:44 15° NNE 20:47:42 10° NNE
Resurs 01 Rocket 2.9 20:42:59 39° WNW 20:42:59 39° WNW 20:46:27 10° NNW
Ariane Rocket 4.1 21:05:27 41° WNW 21:05:27 41° WNW 21:09:15 10° NNW
Terra 3.7 21:07:10 25° N 21:07:10 25° N 21:09:13 10° N
ERS-1 Rocket 4.4 21:07:50 33° N 21:07:50 33° N 21:10:36 10° NNW
ATLAS 2AS CENTAUR R/B 3.8 21:01:26 10° NW 21:08:05 35° NNE 21:09:00 34° NE
Cosmos 2322 Rocket 3.1 21:09:30 46° NNW 21:09:30 46° NNW 21:14:03 10° NNE
Gbstr 26 Del rocket 4.4 21:09:13 10° W 21:17:10 82° NNW 21:17:10 82° NNW
NOSS 3-4 (A) 3.9 21:12:34 10° NW 21:18:30 69° NNW 21:18:30 69° NNW
NOSS 3-4 (C) 3.9 21:12:41 10° NW 21:18:36 69° NNW 21:18:36 69° NNW
USA 215 3.7 21:34:39 55° N 21:34:39 55° N 21:40:29 10° WNW
SL-16 R/B 3.9 21:31:30 10° WSW 21:36:24 29° NW 21:41:19 10° NNE
Cosmos 2278 Rocket 3.8 21:41:56 10° NNW 21:44:53 32° NNW 21:44:53 32° NNW
Cosmos 1943 Rocket 4.1 21:52:35 10° NNW 21:54:57 23° N 21:54:57 23° N
USA 281 4.3 22:03:14 39° WNW 22:03:14 39° WNW 22:07:45 10° NW
Cosmos 2369 Rocket 4.4 21:57:12 10° NNW 22:00:00 19° NNE 22:00:00 19° NNE
Cosmos 2333 Rocket 4.4 22:08:01 19° NNE 22:08:01 19° NNE 22:09:35 10° NNE
Cosmos 2360 Rocket 4.3 22:28:28 22° NNW 22:28:28 22° NNW 22:31:21 10° NNE
ATLAS 2AS CENTAUR R/B 4.1 22:52:46 10° NW 22:56:24 32° NW 22:56:24 32° NW
